Flag for Germany Past Weather in Buchholz in der Nordheide, Lower Saxony, Germany — Yesterday and Last 2 Weeks

Now
34 °F

Partly sunny.


Feels Like: 29 °F
Forecast: 27 / 37 °F
Wind: 6 mph from Southwest

Location: Hamburg-Finkenwerder

Current Time: Dec 6, 2016 at 9:22:00 am

Latest Report: Dec 6, 2016 at 8:50 am


Visibility: N/A

Pressure: 30.42 "Hg

Humidity: 81%

Dew Point: 28 °F

Location of Buchholz in der NordheideLocation

Past Weather in Buchholz in der Nordheide — Graph

°F

Buchholz in der Nordheide Temperature Yesterday

Maximum temperature yesterday: 36 °F (at 1:20 pm)
Minimum temperature yesterday: 21 °F (at 7:20 am)
Average temperature yesterday: 29 °F

High & Low Weather Summary for the Past Weeks

 TemperatureHumidityPressure
High59 °F (Nov 21, 12:50 pm)100% (Nov 24, 8:50 pm)30.57 "Hg (Nov 24, 8:50 pm)
Low21 °F (Dec 5, 7:20 am)55% (Nov 21, 10:20 am)29.59 "Hg (Nov 21, 7:20 am)
Average40 °F84%30.18 "Hg
* Reported Nov 21 7:20 am — Dec 6 7:50 am, Buchholz in der Nordheide, Weather by CustomWeather, © 2016

Note: Actual official high and low records may vary slightly from our data, if they occured in-between our weather recording intervals... More about our weather records

Advertising

Buchholz in der Nordheide Weather History for the Previous 24 Hours

Scroll right to see more
 ConditionsComfort  
Time TempWeatherWind HumidityBarometerVisibility
7:50 am
Tue, Dec 6
32 °FPassing clouds.6 mph87%30.39 "HgN/A
7:20 am32 °FPassing clouds.5 mph87%30.39 "HgN/A
6:50 am32 °FPassing clouds.5 mph87%30.39 "HgN/A
6:20 am32 °FPassing clouds.5 mph87%30.36 "HgN/A
5:50 am32 °FPassing clouds.3 mph87%30.36 "HgN/A
8:50 pm
Mon, Dec 5
30 °FPassing clouds.6 mph93%30.30 "HgN/A
8:20 pm28 °FPassing clouds.5 mph93%30.30 "HgN/A
7:50 pm28 °FClear.7 mph93%30.30 "Hg10 mi
7:20 pm30 °FClear.7 mph86%30.30 "Hg10 mi
6:50 pm30 °FClear.5 mph93%30.30 "Hg10 mi
6:20 pm30 °FPassing clouds.6 mph93%30.30 "HgN/A
5:50 pm30 °FPassing clouds.6 mph93%30.30 "HgN/A
5:20 pm32 °FClear.3 mph87%30.30 "Hg10 mi
4:50 pm32 °FClear.2 mph87%30.30 "Hg10 mi
4:20 pm34 °FClear.2 mph87%30.30 "Hg10 mi
3:50 pm34 °FSunny.2 mph87%30.30 "Hg10 mi
3:20 pm36 °FSunny.2 mph87%30.30 "Hg10 mi
2:50 pm36 °FSunny.1 mph81%30.30 "Hg10 mi
2:20 pm36 °FSunny.3 mph81%30.30 "Hg10 mi
1:50 pm36 °FSunny.2 mph81%30.30 "Hg10 mi
1:20 pm36 °FSunny.2 mph81%30.30 "Hg10 mi
12:50 pm34 °FSunny.3 mph87%30.30 "Hg10 mi
12:20 pm32 °FSunny.2 mph87%30.33 "Hg10 mi
11:50 am30 °FSunny.3 mph93%30.33 "Hg10 mi
11:20 am30 °FSunny.No wind93%30.33 "Hg10 mi
10:50 am30 °FSunny.No wind93%30.33 "Hg10 mi
10:20 am28 °FSunny.1 mph93%30.33 "Hg10 mi
9:50 am25 °FSunny.No wind100%30.33 "Hg10 mi
9:20 am23 °FClear.No wind93%30.33 "Hg4 mi
Weather by CustomWeather, © 2016

See weather overviewHow to use our weather pages